Date String (YYYY-MM-DD hh:mm:ss) UTC,Instrument flags,absolute air pressure of the measurement (hPa),sample flow rate (lpm),inlet stack bypass flow (lpm),air temperature of the measurement (°C),ambient temperature measured by the external sensor (°C),aerosol sample conditioner tube jacket temperature (°C),OPC LED temperature (°C),internal box temperature (°C),relative humidity of the measurement (%),span deviation,mass concentration of particles derived from Lorenz-Mie calculation of OPC scattering (μg/m³),mass concentration of particles derived from Lorenz-Mie calculation of OPC scattering (μg/m³),mass concentration of particles derived from Lorenz-Mie calculation of OPC scattering (μg/m³)
DateTimeUTC,F1_M11,P_M11,Q1_M11,Q2_M11,T1_M11,T2_M11,T3_M11,T4_M11,T5_M11,U1_M11,ZSPAN_M11,X0_M11,X2_M11,X1_M11
2023-11-06 08:00:00,SystemResetWarning,0827.0,5.02,000.00,028.2,027.0,000.0,036.7,029.6,10.7,0000.0,0009.16,0003.36,0002.53
2023-11-06 08:01:00,SystemResetWarning,0827.0,4.99,000.00,028.2,027.0,000.0,036.7,029.6,10.6,0000.0,0008.57,0003.32,0002.53
2023-11-06 08:02:00,SystemResetWarning,0826.9,5.00,000.00,028.2,027.0,000.0,036.6,029.6,10.6,0000.0,0008.93,0003.40,0002.56
2023-11-06 08:03:00,SystemResetWarning,0826.9,5.00,000.00,028.2,027.1,000.0,036.6,029.6,10.5,0000.0,0009.12,0003.40,0002.56
2023-11-06 08:04:00,SystemResetWarning,0826.8,5.01,000.00,028.2,027.1,000.0,036.6,029.6,10.5,0000.0,0009.14,0003.39,0002.55
2023-11-06 08:05:00,SystemResetWarning,0826.8,5.01,000.00,028.2,027.1,000.0,036.6,029.6,10.5,0000.0,0008.70,0003.37,0002.54
2023-11-06 08:06:00,SystemResetWarning,0826.9,5.00,000.00,028.2,027.1,000.0,036.6,029.6,10.5,0000.0,0008.58,0003.35,0002.54
2023-11-06 08:07:00,SystemResetWarning,0826.9,5.00,000.00,028.2,027.1,000.0,036.6,029.6,10.5,0000.0,0009.23,0003.35,0002.51
2023-11-06 08:08:00,SystemResetWarning,0826.9,5.00,000.00,028.2,027.0,000.0,036.6,029.5,10.5,0000.0,0009.45,0003.37,0002.49
2023-11-06 08:09:00,SystemResetWarning,0826.9,5.00,000.00,028.2,027.0,000.0,036.6,029.5,10.6,0000.0,0009.76,0003.36,0002.46
2023-11-06 08:10:00,SystemResetWarning,0826.8,5.00,000.00,028.2,027.0,000.0,036.6,029.6,10.6,0000.0,0010.18,0003.33,0002.46
2023-11-06 08:11:00,SystemResetWarning,0826.8,5.00,000.00,028.2,027.0,000.0,036.6,029.5,10.6,0000.0,0010.25,0003.33,0002.46
2023-11-06 08:12:00,SystemResetWarning,0826.8,5.00,000.00,028.1,027.0,000.0,036.6,029.5,10.6,0000.0,0010.64,0003.38,0002.47
2023-11-06 08:13:00,SystemResetWarning,0826.7,5.00,000.00,028.1,027.0,000.0,036.6,029.5,10.5,0000.0,0010.51,0003.34,0002.45
2023-11-06 08:14:00,SystemResetWarning,0826.8,5.00,000.00,028.1,027.0,000.0,036.6,029.5,10.5,0000.0,0010.48,0003.34,0002.43
2023-11-06 08:15:00,SystemResetWarning,0826.8,5.00,000.00,028.1,026.9,000.0,036.6,029.5,10.4,0000.0,0010.62,0003.38,0002.43
2023-11-06 08:16:00,SystemResetWarning,0826.8,5.00,000.00,028.1,026.9,000.0,036.6,029.5,10.4,0000.0,0010.68,0003.40,0002.42
2023-11-06 08:17:00,SystemResetWarning,0826.8,5.00,000.00,028.1,026.9,000.0,036.6,029.5,10.3,0000.0,0010.77,0003.41,0002.40
2023-11-06 08:18:00,SystemResetWarning,0826.8,5.00,000.00,028.1,026.9,000.0,036.6,029.5,10.3,0000.0,0009.83,0003.39,0002.38
2023-11-06 08:19:00,SystemResetWarning,0826.8,5.00,000.00,028.1,026.9,000.0,036.6,029.5,10.4,0000.0,0009.56,0003.38,0002.38
2023-11-06 08:20:00,SystemResetWarning,0826.8,5.00,000.00,028.1,026.9,000.0,036.6,029.4,10.6,0000.0,0009.81,0003.34,0002.38
2023-11-06 08:21:00,SystemResetWarning,0826.7,5.00,000.00,028.1,026.9,000.0,036.6,029.4,10.6,0000.0,0009.05,0003.33,0002.37
2023-11-06 08:22:00,SystemResetWarning,0826.8,5.00,000.00,028.1,026.9,000.0,036.5,029.5,10.6,0000.0,0009.16,0003.32,0002.36
2023-11-06 08:23:00,SystemResetWarning,0826.8,5.00,000.00,028.1,026.8,000.0,036.5,029.5,10.6,0000.0,0009.45,0003.30,0002.34
2023-11-06 08:24:00,SystemResetWarning,0826.8,5.00,000.00,028.1,026.8,000.0,036.5,029.4,10.6,0000.0,0009.13,0003.29,0002.33
2023-11-06 08:25:00,SystemResetWarning,0826.8,5.00,000.00,028.1,026.8,000.0,036.5,029.4,10.6,0000.0,0009.71,0003.26,0002.33
2023-11-06 08:26:00,SystemResetWarning,0826.8,5.00,000.00,028.0,026.8,000.0,036.5,029.4,10.6,0000.0,0009.72,0003.20,0002.33
2023-11-06 08:27:00,SystemResetWarning,0826.8,5.00,000.00,028.0,026.8,000.0,036.5,029.4,10.6,0000.0,0010.57,0003.16,0002.34
2023-11-06 08:28:00,SystemResetWarning,0826.8,4.99,000.00,028.0,026.8,000.0,036.5,029.4,10.6,0000.0,0010.81,0003.18,0002.38
2023-11-06 08:29:00,SystemResetWarning,0826.8,5.00,000.00,028.0,026.8,000.0,036.5,029.4,10.6,0000.0,0010.52,0003.20,0002.41
2023-11-06 08:30:00,SystemResetWarning,0826.8,5.00,000.00,028.0,026.8,000.0,036.5,029.4,10.5,0000.0,0010.68,0003.21,0002.44
2023-11-06 08:31:00,SystemResetWarning,0826.8,5.00,000.00,028.0,026.8,000.0,036.5,029.4,10.4,0000.0,0010.06,0003.21,0002.46
2023-11-06 08:32:00,SystemResetWarning,0826.8,5.00,000.00,028.0,026.8,000.0,036.5,029.4,10.3,0000.0,0010.09,0003.25,0002.50
2023-11-06 08:33:00,SystemResetWarning,0826.8,5.00,000.00,028.0,026.8,000.0,036.5,029.4,10.3,0000.0,0010.40,0003.24,0002.52
2023-11-06 08:34:00,SystemResetWarning,0826.8,5.00,000.00,028.0,026.8,000.0,036.5,029.4,10.4,0000.0,0010.21,0003.23,0002.53
2023-11-06 08:35:00,SystemResetWarning,0826.8,5.00,000.00,028.0,026.8,000.0,036.5,029.4,10.4,0000.0,0010.29,0003.20,0002.52
2023-11-06 08:36:00,SystemResetWarning,0826.8,5.00,000.00,028.0,026.8,000.0,036.5,029.4,10.3,0000.0,0009.61,0003.19,0002.54
2023-11-06 08:37:00,SystemResetWarning,0826.8,5.00,000.00,028.0,026.8,000.0,036.5,029.4,10.3,0000.0,0008.83,0003.18,0002.53
2023-11-06 08:38:00,SystemResetWarning,0826.8,5.00,000.00,028.0,026.8,000.0,036.5,029.4,10.2,0000.0,0008.05,0003.19,0002.54
2023-11-06 08:39:00,SystemResetWarning,0826.8,5.00,000.00,028.0,026.8,000.0,036.5,029.4,10.2,0000.0,0007.54,0003.18,0002.54
2023-11-06 08:40:00,SystemResetWarning,0826.8,5.00,000.00,028.0,026.9,000.0,036.5,029.4,10.2,0000.0,0007.67,0003.19,0002.57
2023-11-06 08:41:00,SystemResetWarning,0826.8,5.00,000.00,028.0,026.9,000.0,036.4,029.4,10.2,0000.0,0007.44,0003.20,0002.59
2023-11-06 08:42:00,SystemResetWarning,0826.7,5.00,000.00,028.0,026.9,000.0,036.4,029.4,10.1,0000.0,0008.00,0003.23,0002.61
2023-11-06 08:43:00,SystemResetWarning,0826.8,5.00,000.00,028.0,026.9,000.0,036.4,029.4,10.1,0000.0,0008.09,0003.23,0002.60
2023-11-06 08:44:00,SystemResetWarning,0826.9,5.00,000.00,028.0,026.8,000.0,036.4,029.4,10.1,0000.0,0007.60,0003.22,0002.59
2023-11-06 08:45:00,SystemResetWarning,0826.9,5.00,000.00,028.0,026.8,000.0,036.4,029.4,10.1,0000.0,0007.46,0003.24,0002.61
2023-11-06 08:46:00,SystemResetWarning,0826.9,5.00,000.00,028.0,026.8,000.0,036.4,029.4,10.1,0000.0,0007.78,0003.25,0002.64
2023-11-06 08:47:00,SystemResetWarning,0826.9,5.00,000.00,028.0,026.9,000.0,036.4,029.4,10.2,0000.0,0008.16,0003.26,0002.64
2023-11-06 08:48:00,SystemResetWarning,0826.9,5.00,000.00,028.0,026.9,000.0,036.4,029.4,10.2,0000.0,0009.16,0003.27,0002.65
2023-11-06 08:49:00,SystemResetWarning,0826.9,5.00,000.00,028.0,026.9,000.0,036.4,029.4,10.2,0000.0,0009.71,0003.27,0002.63
2023-11-06 08:50:00,SystemResetWarning,0826.9,5.00,000.00,028.0,026.9,000.0,036.4,029.4,10.2,0000.0,0010.26,0003.27,0002.63
2023-11-06 08:51:00,SystemResetWarning,0826.9,5.00,000.00,028.0,026.9,000.0,036.4,029.4,10.2,0000.0,0010.58,0003.25,0002.60
2023-11-06 08:52:00,SystemResetWarning,0826.9,5.00,000.00,028.0,026.9,000.0,036.4,029.4,10.1,0000.0,0010.93,0003.23,0002.58
2023-11-06 08:53:00,SystemResetWarning,0826.9,5.00,000.00,028.0,026.9,000.0,036.4,029.4,10.1,0000.0,0010.56,0003.23,0002.58
2023-11-06 08:54:00,SystemResetWarning,0826.9,5.00,000.00,028.0,026.9,000.0,036.4,029.5,10.1,0000.0,0010.34,0003.22,0002.58
2023-11-06 08:55:00,SystemResetWarning,0826.9,5.00,000.00,028.0,026.9,000.0,036.4,029.5,10.2,0000.0,0010.39,0003.25,0002.58
2023-11-06 08:56:00,SystemResetWarning,0826.9,4.99,000.00,028.0,027.0,000.0,036.4,029.4,10.2,0000.0,0010.41,0003.23,0002.56
2023-11-06 08:57:00,SystemResetWarning,0826.9,5.00,000.00,028.0,027.0,000.0,036.4,029.4,10.2,0000.0,0010.43,0003.24,0002.54
2023-11-06 08:58:00,SystemResetWarning,0826.9,4.99,000.00,028.0,027.0,000.0,036.4,029.4,10.2,0000.0,0010.13,0003.25,0002.53
2023-11-06 08:59:00,SystemResetWarning,0826.9,5.00,000.00,028.0,027.0,000.0,036.4,029.4,10.2,0000.0,0009.75,0003.25,0002.51
